Time,TemperatureF,DewpointF,PressureIn,WindDirection,WindDirectionDegrees,WindSpeedMPH,WindSpeedGustMPH,Humidity,HourlyPrecipIn,Conditions,Clouds,dailyrainin,SoftwareType,DateUTC
2013-07-29 00:01:00,78.4,71.3,29.72,SW,225,0.0,0.0,79,0.00,,---,0.00,VWS V13.01,2013-07-29 04:01:00,
2013-07-29 00:02:00,78.4,71.3,29.73,SW,225,0.0,0.0,79,0.00,,---,0.00,VWS V13.01,2013-07-29 04:02:00,
2013-07-29 00:03:00,78.4,71.3,29.73,SW,225,0.0,0.0,79,0.00,,---,0.00,VWS V13.01,2013-07-29 04:03:00,
2013-07-29 00:04:00,78.4,71.3,29.73,SW,225,0.0,0.0,79,0.00,,---,0.00,VWS V13.01,2013-07-29 04:04:00,
2013-07-29 00:05:00,78.4,71.3,29.72,SW,225,0.0,0.0,79,0.00,,---,0.00,VWS V13.01,2013-07-29 04:05:00,
2013-07-29 00:10:00,78.0,71.0,29.73,SW,225,0.0,0.0,79,0.00,,---,0.00,VWS V13.01,2013-07-29 04:10:00,
2013-07-29 00:15:00,78.0,71.0,29.72,SW,225,0.0,0.0,79,0.00,,---,0.00,VWS V13.01,2013-07-29 04:15:00,
2013-07-29 00:20:00,78.2,71.5,29.73,SW,225,0.0,0.0,80,0.00,,---,0.00,VWS V13.01,2013-07-29 04:20:00,
2013-07-29 00:25:00,78.2,71.5,29.73,SW,225,0.0,0.0,80,0.00,,---,0.00,VWS V13.01,2013-07-29 04:25:00,
2013-07-29 00:30:00,78.0,71.3,29.73,SW,225,0.0,0.0,80,0.00,,---,0.00,VWS V13.01,2013-07-29 04:30:00,
2013-07-29 00:35:00,78.0,71.3,29.72,SW,225,0.0,0.0,80,0.00,,---,0.00,VWS V13.01,2013-07-29 04:35:00,
2013-07-29 00:40:00,77.9,71.2,29.72,SW,225,0.0,0.0,80,0.00,,---,0.00,VWS V13.01,2013-07-29 04:40:00,
2013-07-29 00:45:00,77.7,71.0,29.72,SW,225,0.0,0.0,80,0.00,,---,0.00,VWS V13.01,2013-07-29 04:45:00,
2013-07-29 00:50:00,77.7,71.0,29.72,SW,225,0.0,0.0,80,0.00,,---,0.00,VWS V13.01,2013-07-29 04:50:00,
2013-07-29 00:55:00,77.7,71.4,29.72,SW,225,0.0,0.0,81,0.00,,---,0.00,VWS V13.01,2013-07-29 04:55:00,
2013-07-29 01:00:00,77.7,71.4,29.72,SW,225,0.0,0.0,81,0.00,,---,0.00,VWS V13.01,2013-07-29 05:00:00,
2013-07-29 01:05:00,77.7,71.0,29.72,SW,225,0.0,0.0,80,0.00,,---,0.00,VWS V13.01,2013-07-29 05:05:00,
2013-07-29 01:10:00,77.7,71.4,29.72,SW,225,0.0,0.0,81,0.00,,---,0.00,VWS V13.01,2013-07-29 05:10:00,
2013-07-29 01:15:00,77.5,71.2,29.71,SW,225,0.0,0.0,81,0.00,,---,0.00,VWS V13.01,2013-07-29 05:15:00,
2013-07-29 01:20:00,77.5,71.2,29.71,SW,225,0.0,0.0,81,0.00,,---,0.00,VWS V13.01,2013-07-29 05:20:00,
2013-07-29 01:25:00,77.3,71.0,29.71,SW,225,0.0,0.0,81,0.00,,---,0.00,VWS V13.01,2013-07-29 05:25:00,
2013-07-29 01:30:00,77.3,71.0,29.71,SW,225,0.0,0.0,81,0.00,,---,0.00,VWS V13.01,2013-07-29 05:30:00,
2013-07-29 01:35:00,77.3,71.0,29.71,SW,225,0.0,0.0,81,0.00,,---,0.00,VWS V13.01,2013-07-29 05:35:00,
2013-07-29 01:40:00,77.1,70.8,29.71,SW,225,0.0,0.0,81,0.00,,---,0.00,VWS V13.01,2013-07-29 05:40:00,
2013-07-29 01:45:00,77.1,70.8,29.71,SW,225,0.0,0.0,81,0.00,,---,0.00,VWS V13.01,2013-07-29 05:45:00,
2013-07-29 01:50:00,77.1,70.8,29.71,SW,225,0.0,0.0,81,0.00,,---,0.00,VWS V13.01,2013-07-29 05:50:00,
2013-07-29 01:55:00,77.0,70.7,29.70,SW,225,0.0,0.0,81,0.00,,---,0.00,VWS V13.01,2013-07-29 05:55:00,
2013-07-29 02:00:00,77.0,70.7,29.69,SW,225,0.0,0.0,81,0.00,,---,0.00,VWS V13.01,2013-07-29 06:00:00,
2013-07-29 02:05:00,76.8,70.9,29.69,SW,225,0.0,0.0,82,0.00,,---,0.00,VWS V13.01,2013-07-29 06:05:00,
2013-07-29 02:10:00,76.8,70.9,29.69,SW,225,0.0,0.0,82,0.00,,---,0.00,VWS V13.01,2013-07-29 06:10:00,
2013-07-29 02:15:00,76.8,70.9,29.70,SW,225,0.0,0.0,82,0.00,,---,0.00,VWS V13.01,2013-07-29 06:15:00,
2013-07-29 02:20:00,76.8,70.9,29.70,SW,225,0.0,0.0,82,0.00,,---,0.00,VWS V13.01,2013-07-29 06:20:00,
2013-07-29 02:25:00,76.8,70.9,29.70,SW,225,0.0,0.0,82,0.00,,---,0.00,VWS V13.01,2013-07-29 06:25:00,
2013-07-29 02:30:00,76.6,70.7,29.70,SW,225,0.0,0.0,82,0.00,,---,0.00,VWS V13.01,2013-07-29 06:30:00,
2013-07-29 02:35:00,76.4,70.5,29.70,SW,225,0.0,0.0,82,0.00,,---,0.00,VWS V13.01,2013-07-29 06:35:00,
2013-07-29 02:40:00,76.2,70.3,29.71,SW,225,0.0,0.0,82,0.00,,---,0.00,VWS V13.01,2013-07-29 06:40:00,
2013-07-29 02:45:00,76.2,70.3,29.71,SW,225,0.0,0.0,82,0.00,,---,0.00,VWS V13.01,2013-07-29 06:45:00,
2013-07-29 02:50:00,76.1,70.2,29.70,SW,225,0.0,0.0,82,0.00,,---,0.00,VWS V13.01,2013-07-29 06:50:00,
2013-07-29 02:55:00,75.9,70.0,29.70,SW,225,0.0,0.0,82,0.00,,---,0.00,VWS V13.01,2013-07-29 06:55:00,
2013-07-29 03:00:00,75.9,70.0,29.70,SW,225,0.0,0.0,82,0.00,,---,0.00,VWS V13.01,2013-07-29 07:00:00,
2013-07-29 03:05:00,75.9,70.0,29.70,SW,225,0.0,0.0,82,0.00,,---,0.00,VWS V13.01,2013-07-29 07:05:00,
2013-07-29 03:10:00,75.9,70.4,29.69,SW,225,0.0,0.0,83,0.00,,---,0.00,VWS V13.01,2013-07-29 07:10:00,
2013-07-29 03:15:00,75.9,70.4,29.69,SW,225,0.0,0.0,83,0.00,,---,0.00,VWS V13.01,2013-07-29 07:15:00,
2013-07-29 03:20:00,75.7,70.2,29.69,SW,225,0.0,0.0,83,0.00,,---,0.00,VWS V13.01,2013-07-29 07:20:00,
2013-07-29 03:25:00,75.7,70.2,29.69,SW,225,0.0,0.0,83,0.00,,---,0.00,VWS V13.01,2013-07-29 07:25:00,
2013-07-29 03:30:00,75.7,70.2,29.69,SW,225,0.0,0.0,83,0.00,,---,0.00,VWS V13.01,2013-07-29 07:30:00,
2013-07-29 03:35:00,75.5,70.0,29.69,SW,225,0.0,0.0,83,0.00,,---,0.00,VWS V13.01,2013-07-29 07:35:00,
2013-07-29 03:40:00,75.5,70.3,29.69,SW,225,0.0,0.0,84,0.00,,---,0.00,VWS V13.01,2013-07-29 07:40:00,
2013-07-29 03:45:00,75.5,70.3,29.68,SW,225,0.0,0.0,84,0.00,,---,0.00,VWS V13.01,2013-07-29 07:45:00,
2013-07-29 03:50:00,75.5,70.3,29.69,SW,225,0.0,0.0,84,0.00,,---,0.00,VWS V13.01,2013-07-29 07:50:00,
2013-07-29 03:55:00,75.5,70.3,29.69,SW,225,0.0,0.0,84,0.00,,---,0.00,VWS V13.01,2013-07-29 07:55:00,
2013-07-29 04:02:00,75.5,70.3,29.69,SW,225,0.0,0.0,84,0.00,,---,0.00,VWS V13.01,2013-07-29 08:02:00,
2013-07-29 04:07:00,75.3,70.1,29.69,SW,225,0.0,0.0,84,0.00,,---,0.00,VWS V13.01,2013-07-29 08:07:00,
2013-07-29 04:12:00,75.3,70.1,29.69,SW,225,0.0,0.0,84,0.00,,---,0.00,VWS V13.01,2013-07-29 08:12:00,
2013-07-29 04:18:00,75.3,70.1,29.69,SW,225,0.0,0.0,84,0.00,,---,0.00,VWS V13.01,2013-07-29 08:18:00,
2013-07-29 04:23:00,75.2,70.0,29.69,SW,225,0.0,0.0,84,0.00,,---,0.00,VWS V13.01,2013-07-29 08:23:00,
2013-07-29 04:28:00,75.0,69.8,29.69,SW,225,0.0,0.0,84,0.00,,---,0.00,VWS V13.01,2013-07-29 08:28:00,
2013-07-29 04:33:00,75.0,69.8,29.69,SW,225,0.0,0.0,84,0.00,,---,0.00,VWS V13.01,2013-07-29 08:33:00,
2013-07-29 04:39:00,75.0,69.8,29.69,SW,225,0.0,0.0,84,0.00,,---,0.00,VWS V13.01,2013-07-29 08:39:00,
2013-07-29 04:44:00,75.0,69.8,29.69,SW,225,0.0,0.0,84,0.00,,---,0.00,VWS V13.01,2013-07-29 08:44:00,
2013-07-29 04:49:00,75.0,69.8,29.69,SW,225,0.0,0.0,84,0.00,,---,0.00,VWS V13.01,2013-07-29 08:49:00,
2013-07-29 04:54:00,75.0,69.8,29.70,SW,225,0.0,0.0,84,0.00,,---,0.00,VWS V13.01,2013-07-29 08:54:00,
2013-07-29 04:59:00,75.0,69.8,29.70,SW,225,0.0,0.0,84,0.00,,---,0.00,VWS V13.01,2013-07-29 08:59:00,
2013-07-29 05:04:00,75.0,69.8,29.70,SW,225,0.0,0.0,84,0.00,,---,0.00,VWS V13.01,2013-07-29 09:04:00,
2013-07-29 05:09:00,75.0,69.8,29.70,SW,225,0.0,0.0,84,0.00,,---,0.00,VWS V13.01,2013-07-29 09:09:00,
2013-07-29 05:14:00,74.8,69.7,29.70,SW,225,0.0,0.0,84,0.00,,---,0.00,VWS V13.01,2013-07-29 09:14:00,
2013-07-29 05:20:00,74.8,69.7,29.70,SW,225,0.0,0.0,84,0.00,,---,0.00,VWS V13.01,2013-07-29 09:20:00,
2013-07-29 05:25:00,74.8,69.7,29.70,SW,225,0.0,0.0,84,0.00,,---,0.00,VWS V13.01,2013-07-29 09:25:00,
2013-07-29 05:30:00,74.8,69.7,29.70,SW,225,0.0,0.0,84,0.00,,---,0.00,VWS V13.01,2013-07-29 09:30:00,
2013-07-29 05:35:00,74.4,69.6,29.70,SW,225,0.0,0.0,85,0.00,,---,0.00,VWS V13.01,2013-07-29 09:35:00,
2013-07-29 05:41:00,74.4,69.6,29.70,SW,225,0.0,0.0,85,0.00,,---,0.00,VWS V13.01,2013-07-29 09:41:00,
2013-07-29 05:46:00,74.4,69.6,29.70,SW,225,0.0,0.0,85,0.00,,---,0.00,VWS V13.01,2013-07-29 09:46:00,
2013-07-29 05:52:00,74.4,69.6,29.70,SW,225,0.0,0.0,85,0.00,,---,0.00,VWS V13.01,2013-07-29 09:52:00,
2013-07-29 05:57:00,74.4,69.6,29.71,SW,225,0.0,0.0,85,0.00,,---,0.00,VWS V13.01,2013-07-29 09:57:00,
2013-07-29 06:02:00,74.4,69.6,29.71,SW,225,0.0,0.0,85,0.00,,---,0.00,VWS V13.01,2013-07-29 10:02:00,
2013-07-29 06:07:00,74.4,69.6,29.71,SW,225,0.0,0.0,85,0.00,,---,0.00,VWS V13.01,2013-07-29 10:07:00,
2013-07-29 06:13:00,74.4,69.6,29.71,SW,225,0.0,0.0,85,0.00,,---,0.00,VWS V13.01,2013-07-29 10:13:00,
2013-07-29 06:19:00,74.3,69.5,29.71,SW,225,0.0,0.0,85,0.00,,---,0.00,VWS V13.01,2013-07-29 10:19:00,
2013-07-29 06:24:00,74.3,69.5,29.71,SW,225,0.0,0.0,85,0.00,,---,0.00,VWS V13.01,2013-07-29 10:24:00,
2013-07-29 06:29:00,74.3,69.5,29.71,SW,225,0.0,0.0,85,0.00,,---,0.00,VWS V13.01,2013-07-29 10:29:00,
2013-07-29 06:34:00,74.3,69.5,29.71,SW,225,0.0,0.0,85,0.00,,---,0.00,VWS V13.01,2013-07-29 10:34:00,
2013-07-29 06:39:00,74.3,69.5,29.71,SW,225,0.0,0.0,85,0.00,,---,0.00,VWS V13.01,2013-07-29 10:39:00,
2013-07-29 06:44:00,74.3,69.5,29.72,SW,225,0.0,0.0,85,0.00,,---,0.00,VWS V13.01,2013-07-29 10:44:00,
2013-07-29 06:49:00,74.3,69.5,29.72,SW,225,0.0,0.0,85,0.00,,---,0.00,VWS V13.01,2013-07-29 10:49:00,
2013-07-29 06:55:00,74.1,69.3,29.72,SW,225,0.0,0.0,85,0.00,,---,0.00,VWS V13.01,2013-07-29 10:55:00,
2013-07-29 07:02:00,74.1,69.3,29.72,SW,225,0.0,0.0,85,0.00,,---,0.00,VWS V13.01,2013-07-29 11:02:00,
2013-07-29 07:07:00,74.1,69.3,29.72,SW,225,0.0,0.0,85,0.00,,---,0.00,VWS V13.01,2013-07-29 11:07:00,
2013-07-29 07:12:00,74.1,69.3,29.73,SW,225,0.0,0.0,85,0.00,,---,0.00,VWS V13.01,2013-07-29 11:12:00,
2013-07-29 07:17:00,74.3,69.5,29.73,SW,225,0.0,0.0,85,0.00,,---,0.00,VWS V13.01,2013-07-29 11:17:00,
2013-07-29 07:22:00,74.3,69.5,29.73,SW,225,0.0,0.0,85,0.00,,---,0.00,VWS V13.01,2013-07-29 11:22:00,
2013-07-29 07:27:00,74.4,69.6,29.73,SW,225,0.0,0.0,85,0.00,,---,0.00,VWS V13.01,2013-07-29 11:27:00,
2013-07-29 07:32:00,74.4,69.6,29.73,SW,225,0.0,0.0,85,0.00,,---,0.00,VWS V13.01,2013-07-29 11:32:00,
2013-07-29 07:37:00,74.6,69.8,29.73,SW,225,0.0,0.0,85,0.00,,---,0.00,VWS V13.01,2013-07-29 11:37:00,
2013-07-29 07:43:00,75.0,70.2,29.73,SW,225,0.0,0.0,85,0.00,,---,0.00,VWS V13.01,2013-07-29 11:43:00,
2013-07-29 07:48:00,75.0,70.5,29.73,SW,225,0.0,0.0,86,0.00,,---,0.00,VWS V13.01,2013-07-29 11:48:00,
2013-07-29 07:54:00,75.5,71.0,29.74,SW,225,0.0,0.0,86,0.00,,---,0.00,VWS V13.01,2013-07-29 11:54:00,
2013-07-29 07:59:00,76.1,71.6,29.74,SW,225,0.0,0.0,86,0.00,,---,0.00,VWS V13.01,2013-07-29 11:59:00,
2013-07-29 08:04:00,76.6,72.4,29.74,SW,225,0.0,0.0,87,0.00,,---,0.00,VWS V13.01,2013-07-29 12:04:00,
2013-07-29 08:09:00,77.1,72.9,29.74,SW,225,0.0,0.0,87,0.00,,---,0.00,VWS V13.01,2013-07-29 12:09:00,
2013-07-29 08:14:00,77.5,73.3,29.74,SW,225,0.0,0.0,87,0.00,,---,0.00,VWS V13.01,2013-07-29 12:14:00,
2013-07-29 08:19:00,78.0,73.8,29.74,SW,225,0.0,0.0,87,0.00,,---,0.00,VWS V13.01,2013-07-29 12:19:00,
2013-07-29 08:25:00,78.6,74.1,29.75,SW,225,0.0,0.0,86,0.00,,---,0.00,VWS V13.01,2013-07-29 12:25:00,
2013-07-29 08:31:00,79.3,74.8,29.75,SW,225,0.0,0.0,86,0.00,,---,0.00,VWS V13.01,2013-07-29 12:31:00,
2013-07-29 08:36:00,79.7,75.2,29.75,SW,225,0.0,0.0,86,0.00,,---,0.00,VWS V13.01,2013-07-29 12:36:00,
2013-07-29 08:41:00,80.2,75.6,29.76,SW,225,0.0,0.0,86,0.00,,---,0.00,VWS V13.01,2013-07-29 12:41:00,
2013-07-29 08:46:00,80.7,76.1,29.76,SW,225,0.0,0.0,86,0.00,,---,0.00,VWS V13.01,2013-07-29 12:46:00,
2013-07-29 08:51:00,81.1,76.2,29.76,SW,225,0.0,0.0,85,0.00,,---,0.00,VWS V13.01,2013-07-29 12:51:00,
2013-07-29 08:56:00,81.5,76.6,29.76,SW,225,0.0,0.0,85,0.00,,---,0.00,VWS V13.01,2013-07-29 12:56:00,
2013-07-29 09:02:00,82.0,77.1,29.76,SW,225,0.0,0.0,85,0.00,,---,0.00,VWS V13.01,2013-07-29 13:02:00,
2013-07-29 09:07:00,82.2,76.9,29.76,SW,225,0.0,0.0,84,0.00,,---,0.00,VWS V13.01,2013-07-29 13:07:00,
2013-07-29 09:12:00,82.7,77.4,29.76,SW,225,0.0,0.0,84,0.00,,---,0.00,VWS V13.01,2013-07-29 13:12:00,
2013-07-29 09:17:00,82.9,77.2,29.77,SW,225,0.0,0.0,83,0.00,,---,0.00,VWS V13.01,2013-07-29 13:17:00,
2013-07-29 09:22:00,83.4,77.3,29.76,SW,225,0.0,0.0,82,0.00,,---,0.00,VWS V13.01,2013-07-29 13:22:00,
2013-07-29 09:27:00,83.8,77.7,29.76,SW,225,0.0,0.0,82,0.00,,---,0.00,VWS V13.01,2013-07-29 13:27:00,
2013-07-29 09:33:00,84.3,78.2,29.76,SW,225,0.0,0.0,82,0.00,,---,0.00,VWS V13.01,2013-07-29 13:33:00,
2013-07-29 09:38:00,84.7,78.2,29.76,SW,225,0.0,0.0,81,0.00,,---,0.00,VWS V13.01,2013-07-29 13:38:00,
2013-07-29 09:43:00,84.9,78.4,29.76,SW,225,0.0,0.0,81,0.00,,---,0.00,VWS V13.01,2013-07-29 13:43:00,
2013-07-29 09:48:00,85.2,78.3,29.76,SW,225,0.0,0.0,80,0.00,,---,0.00,VWS V13.01,2013-07-29 13:48:00,
2013-07-29 09:53:00,85.6,78.7,29.77,SW,225,0.0,0.0,80,0.00,,---,0.00,VWS V13.01,2013-07-29 13:53:00,
2013-07-29 09:58:00,85.8,78.5,29.77,SW,225,0.0,0.0,79,0.00,,---,0.00,VWS V13.01,2013-07-29 13:58:00,
2013-07-29 10:03:00,86.1,78.4,29.77,SW,225,0.0,0.0,78,0.00,,---,0.00,VWS V13.01,2013-07-29 14:03:00,
2013-07-29 10:09:00,86.5,78.8,29.77,SW,225,0.0,0.0,78,0.00,,---,0.00,VWS V13.01,2013-07-29 14:09:00,
2013-07-29 10:14:00,86.9,78.8,29.77,SW,225,0.0,0.0,77,0.00,,---,0.00,VWS V13.01,2013-07-29 14:14:00,
2013-07-29 10:19:00,87.2,78.7,29.77,SW,225,0.0,0.0,76,0.00,,---,0.00,VWS V13.01,2013-07-29 14:19:00,
2013-07-29 10:24:00,87.6,79.1,29.77,SW,225,0.0,0.0,76,0.00,,---,0.00,VWS V13.01,2013-07-29 14:24:00,
2013-07-29 10:30:00,88.5,79.2,29.77,SW,225,0.0,0.0,74,0.00,,---,0.00,VWS V13.01,2013-07-29 14:30:00,
2013-07-29 10:35:00,89.0,79.2,29.77,SW,225,0.0,0.0,73,0.00,,---,0.00,VWS V13.01,2013-07-29 14:35:00,
2013-07-29 10:40:00,89.4,79.6,29.77,SW,225,0.0,0.0,73,0.00,,---,0.00,VWS V13.01,2013-07-29 14:40:00,
2013-07-29 10:47:00,89.6,79.4,29.77,SW,225,0.0,0.0,72,0.00,,---,0.00,VWS V13.01,2013-07-29 14:47:00,
2013-07-29 10:52:00,89.4,79.2,29.77,SW,225,0.0,0.0,72,0.00,,---,0.00,VWS V13.01,2013-07-29 14:52:00,
2013-07-29 10:58:00,89.0,78.4,29.78,SW,225,0.0,0.0,71,0.00,,---,0.00,VWS V13.01,2013-07-29 14:58:00,
2013-07-29 11:03:00,88.3,77.3,29.78,SW,225,0.0,0.0,70,0.00,,---,0.00,VWS V13.01,2013-07-29 15:03:00,
2013-07-29 11:09:00,88.1,77.1,29.78,SW,225,0.0,0.0,70,0.00,,---,0.00,VWS V13.01,2013-07-29 15:09:00,
2013-07-29 11:14:00,88.1,77.5,29.78,SW,225,0.0,0.0,71,0.00,,---,0.00,VWS V13.01,2013-07-29 15:14:00,
2013-07-29 11:19:00,87.9,77.3,29.78,SW,225,0.0,0.0,71,0.00,,---,0.00,VWS V13.01,2013-07-29 15:19:00,
2013-07-29 11:24:00,87.6,77.0,29.78,SW,225,0.0,0.0,71,0.00,,---,0.00,VWS V13.01,2013-07-29 15:24:00,
2013-07-29 11:29:00,87.8,77.7,29.78,SW,225,0.0,0.0,72,0.00,,---,0.00,VWS V13.01,2013-07-29 15:29:00,
2013-07-29 11:34:00,88.3,78.1,29.78,SW,225,0.0,0.0,72,0.00,,---,0.00,VWS V13.01,2013-07-29 15:34:00,
2013-07-29 11:39:00,89.2,79.0,29.77,SW,225,0.0,0.0,72,0.00,,---,0.00,VWS V13.01,2013-07-29 15:39:00,
2013-07-29 11:44:00,89.7,78.6,29.78,SW,225,0.0,0.0,70,0.00,,---,0.00,VWS V13.01,2013-07-29 15:44:00,
2013-07-29 11:49:00,90.3,79.2,29.78,SW,225,0.0,0.0,70,0.00,,---,0.00,VWS V13.01,2013-07-29 15:49:00,
2013-07-29 11:54:00,90.5,78.9,29.78,SW,225,0.0,0.0,69,0.00,,---,0.00,VWS V13.01,2013-07-29 15:54:00,
2013-07-29 11:59:00,90.3,77.9,29.78,SW,225,0.0,0.0,67,0.00,,---,0.00,VWS V13.01,2013-07-29 15:59:00,
2013-07-29 12:04:00,90.3,77.9,29.78,SW,225,0.0,0.0,67,0.00,,---,0.00,VWS V13.01,2013-07-29 16:04:00,
2013-07-29 12:10:00,90.3,77.9,29.78,SW,225,0.0,0.0,67,0.00,,---,0.00,VWS V13.01,2013-07-29 16:10:00,
2013-07-29 12:15:00,90.3,77.9,29.78,SW,225,0.0,0.0,67,0.00,,---,0.00,VWS V13.01,2013-07-29 16:15:00,
2013-07-29 12:20:00,89.7,77.3,29.78,SW,225,0.0,0.0,67,0.00,,---,0.00,VWS V13.01,2013-07-29 16:20:00,
2013-07-29 12:25:00,89.6,77.6,29.78,SW,225,0.0,0.0,68,0.00,,---,0.00,VWS V13.01,2013-07-29 16:25:00,
2013-07-29 12:30:00,89.6,77.6,29.78,West,270,0.0,0.0,68,0.00,,---,0.00,VWS V13.01,2013-07-29 16:30:00,
2013-07-29 12:35:00,90.1,78.1,29.78,NNW,338,0.0,0.0,68,0.00,,---,0.00,VWS V13.01,2013-07-29 16:35:00,
2013-07-29 12:41:00,90.3,78.3,29.78,North,360,0.0,0.0,68,0.00,,---,0.00,VWS V13.01,2013-07-29 16:41:00,
2013-07-29 12:46:00,90.6,78.1,29.77,WNW,292,0.0,0.0,67,0.00,,---,0.00,VWS V13.01,2013-07-29 16:46:00,
2013-07-29 12:51:00,91.0,78.5,29.78,WNW,292,0.0,0.0,67,0.00,,---,0.00,VWS V13.01,2013-07-29 16:51:00,
2013-07-29 12:57:00,91.0,78.1,29.77,West,270,0.0,0.0,66,0.00,,---,0.00,VWS V13.01,2013-07-29 16:57:00,
2013-07-29 13:02:00,91.4,78.4,29.78,WNW,292,0.0,0.0,66,0.00,,---,0.00,VWS V13.01,2013-07-29 17:02:00,
2013-07-29 13:08:00,91.9,78.5,29.78,WNW,292,0.0,0.0,65,0.00,,---,0.00,VWS V13.01,2013-07-29 17:08:00,
2013-07-29 13:14:00,91.9,78.5,29.78,WNW,292,0.0,0.0,65,0.00,,---,0.00,VWS V13.01,2013-07-29 17:14:00,
2013-07-29 13:19:00,91.9,78.5,29.78,West,270,0.0,0.0,65,0.00,,---,0.00,VWS V13.01,2013-07-29 17:19:00,
2013-07-29 13:24:00,91.9,78.0,29.78,West,270,0.0,0.0,64,0.00,,---,0.00,VWS V13.01,2013-07-29 17:24:00,
2013-07-29 13:30:00,91.9,78.0,29.78,West,270,0.0,0.0,64,0.00,,---,0.00,VWS V13.01,2013-07-29 17:30:00,
2013-07-29 13:38:00,92.1,78.2,29.78,SSW,202,0.0,0.0,64,0.00,,---,0.00,VWS V13.01,2013-07-29 17:38:00,
2013-07-29 13:43:00,92.1,77.7,29.77,SSW,202,0.0,0.0,63,0.00,,---,0.00,VWS V13.01,2013-07-29 17:43:00,
2013-07-29 13:48:00,92.4,78.0,29.78,SSW,202,0.0,0.0,63,0.00,,---,0.00,VWS V13.01,2013-07-29 17:48:00,
2013-07-29 13:54:00,92.4,77.0,29.78,SSW,202,0.0,0.0,61,0.00,,---,0.00,VWS V13.01,2013-07-29 17:54:00,
2013-07-29 13:59:00,92.8,78.4,29.77,SW,225,0.0,0.0,63,0.00,,---,0.00,VWS V13.01,2013-07-29 17:59:00,
2013-07-29 14:04:00,93.0,78.1,29.77,SSW,202,0.0,0.0,62,0.00,,---,0.00,VWS V13.01,2013-07-29 18:04:00,
2013-07-29 14:09:00,93.7,78.2,29.77,SSW,202,0.0,0.0,61,0.00,,---,0.00,VWS V13.01,2013-07-29 18:09:00,
2013-07-29 14:14:00,93.7,78.2,29.78,SSW,202,0.0,0.0,61,0.00,,---,0.00,VWS V13.01,2013-07-29 18:14:00,
2013-07-29 14:19:00,94.1,79.1,29.78,WNW,292,2.6,2.6,62,0.00,,---,0.00,VWS V13.01,2013-07-29 18:19:00,
2013-07-29 14:24:00,94.4,79.9,29.77,WNW,292,0.0,0.0,63,0.00,,---,0.00,VWS V13.01,2013-07-29 18:24:00,
2013-07-29 14:29:00,94.6,80.1,29.77,SW,225,0.0,0.0,63,0.00,,---,0.00,VWS V13.01,2013-07-29 18:29:00,
2013-07-29 14:34:00,94.8,80.2,29.76,SW,225,0.0,0.0,63,0.00,,---,0.00,VWS V13.01,2013-07-29 18:34:00,
2013-07-29 14:39:00,94.8,80.2,29.76,WSW,248,0.0,0.0,63,0.00,,---,0.00,VWS V13.01,2013-07-29 18:39:00,
2013-07-29 14:44:00,94.8,79.8,29.76,West,270,0.0,0.0,62,0.00,,---,0.00,VWS V13.01,2013-07-29 18:44:00,
2013-07-29 14:49:00,94.8,79.8,29.76,NW,315,0.0,0.0,62,0.00,,---,0.00,VWS V13.01,2013-07-29 18:49:00,
2013-07-29 14:54:00,94.8,79.8,29.76,West,270,0.0,0.0,62,0.00,,---,0.00,VWS V13.01,2013-07-29 18:54:00,
2013-07-29 14:59:00,94.8,79.8,29.77,North,360,0.0,0.0,62,0.00,,---,0.00,VWS V13.01,2013-07-29 18:59:00,
2013-07-29 15:05:00,94.6,79.6,29.77,WNW,292,0.0,0.0,62,0.00,,---,0.00,VWS V13.01,2013-07-29 19:05:00,
2013-07-29 15:10:00,94.1,78.6,29.76,NNW,338,0.0,0.0,61,0.00,,---,0.00,VWS V13.01,2013-07-29 19:10:00,
2013-07-29 15:15:00,93.9,78.4,29.76,NW,315,0.0,0.0,61,0.00,,---,0.00,VWS V13.01,2013-07-29 19:15:00,
2013-07-29 15:22:00,93.0,78.1,29.77,SSW,202,0.0,0.0,62,0.00,,---,0.00,VWS V13.01,2013-07-29 19:22:00,
2013-07-29 15:27:00,92.8,78.4,29.77,SSW,202,0.0,0.0,63,0.00,,---,0.00,VWS V13.01,2013-07-29 19:27:00,
2013-07-29 15:33:00,92.3,77.9,29.77,SSW,202,0.0,0.0,63,0.00,,---,0.00,VWS V13.01,2013-07-29 19:33:00,
2013-07-29 15:38:00,92.1,78.2,29.76,SSW,202,0.0,0.0,64,0.00,,---,0.00,VWS V13.01,2013-07-29 19:38:00,
2013-07-29 15:44:00,91.7,77.8,29.76,SSW,202,0.0,0.0,64,0.00,,---,0.00,VWS V13.01,2013-07-29 19:44:00,
2013-07-29 15:49:00,91.5,77.6,29.76,SSW,202,0.0,0.0,64,0.00,,---,0.00,VWS V13.01,2013-07-29 19:49:00,
2013-07-29 15:54:00,91.2,77.3,29.76,SSW,202,0.0,0.0,64,0.00,,---,0.00,VWS V13.01,2013-07-29 19:54:00,
2013-07-29 16:00:00,91.0,77.6,29.76,SSW,202,0.0,0.0,65,0.00,,---,0.00,VWS V13.01,2013-07-29 20:00:00,
2013-07-29 16:06:00,91.2,77.8,29.76,SSW,202,0.0,0.0,65,0.00,,---,0.00,VWS V13.01,2013-07-29 20:06:00,
2013-07-29 16:11:00,91.0,77.6,29.75,SSW,202,0.0,0.0,65,0.00,,---,0.00,VWS V13.01,2013-07-29 20:11:00,
2013-07-29 16:16:00,90.6,77.2,29.76,SSW,202,0.0,0.0,65,0.00,,---,0.00,VWS V13.01,2013-07-29 20:16:00,
2013-07-29 16:22:00,90.5,77.1,29.76,SSW,202,0.0,0.0,65,0.00,,---,0.00,VWS V13.01,2013-07-29 20:22:00,
2013-07-29 16:27:00,90.3,76.9,29.76,SSW,202,0.0,0.0,65,0.00,,---,0.00,VWS V13.01,2013-07-29 20:27:00,
2013-07-29 16:33:00,90.1,76.8,29.76,SSW,202,0.0,0.0,65,0.00,,---,0.00,VWS V13.01,2013-07-29 20:33:00,
2013-07-29 16:38:00,89.7,76.8,29.76,SSW,202,0.0,0.0,66,0.00,,---,0.00,VWS V13.01,2013-07-29 20:38:00,
2013-07-29 16:43:00,89.7,76.8,29.76,SSW,202,0.0,0.0,66,0.00,,---,0.00,VWS V13.01,2013-07-29 20:43:00,
2013-07-29 16:48:00,89.4,76.6,29.76,SW,225,0.0,0.0,66,0.00,,---,0.00,VWS V13.01,2013-07-29 20:48:00,
2013-07-29 16:53:00,89.4,76.6,29.76,SW,225,0.0,0.0,66,0.00,,---,0.00,VWS V13.01,2013-07-29 20:53:00,
2013-07-29 16:58:00,89.4,76.6,29.76,SW,225,0.0,0.0,66,0.00,,---,0.00,VWS V13.01,2013-07-29 20:58:00,
2013-07-29 17:03:00,89.4,76.6,29.76,SSW,202,0.0,0.0,66,0.00,,---,0.00,VWS V13.01,2013-07-29 21:03:00,
2013-07-29 17:08:00,89.2,76.4,29.76,SSW,202,0.0,0.0,66,0.00,,---,0.00,VWS V13.01,2013-07-29 21:08:00,
2013-07-29 17:13:00,89.2,76.4,29.76,SSW,202,0.0,0.0,66,0.00,,---,0.00,VWS V13.01,2013-07-29 21:13:00,
2013-07-29 17:19:00,89.0,76.2,29.75,SSW,202,0.0,0.0,66,0.00,,---,0.00,VWS V13.01,2013-07-29 21:19:00,
2013-07-29 17:24:00,88.8,76.4,29.75,SSW,202,0.0,0.0,67,0.00,,---,0.00,VWS V13.01,2013-07-29 21:24:00,
2013-07-29 17:29:00,88.8,76.4,29.75,SW,225,0.0,0.0,67,0.00,,---,0.00,VWS V13.01,2013-07-29 21:29:00,
2013-07-29 17:34:00,89.0,76.6,29.76,SW,225,0.0,0.0,67,0.00,,---,0.00,VWS V13.01,2013-07-29 21:34:00,
2013-07-29 17:39:00,88.8,76.4,29.75,SW,225,0.0,0.0,67,0.00,,---,0.00,VWS V13.01,2013-07-29 21:39:00,
2013-07-29 17:44:00,88.8,76.4,29.75,SSW,202,0.0,0.0,67,0.00,,---,0.00,VWS V13.01,2013-07-29 21:44:00,
2013-07-29 17:50:00,88.8,76.4,29.76,SSW,202,0.0,0.0,67,0.00,,---,0.00,VWS V13.01,2013-07-29 21:50:00,
2013-07-29 17:55:00,88.8,76.4,29.76,SSW,202,0.0,0.0,67,0.00,,---,0.00,VWS V13.01,2013-07-29 21:55:00,
2013-07-29 18:00:00,89.0,76.6,29.75,SSW,202,0.0,0.0,67,0.00,,---,0.00,VWS V13.01,2013-07-29 22:00:00,
2013-07-29 18:05:00,89.2,76.4,29.75,SSW,202,0.0,0.0,66,0.00,,---,0.00,VWS V13.01,2013-07-29 22:05:00,
2013-07-29 18:10:00,89.2,76.4,29.75,SSW,202,0.0,0.0,66,0.00,,---,0.00,VWS V13.01,2013-07-29 22:10:00,
2013-07-29 18:15:00,89.2,76.4,29.75,SSW,202,0.0,0.0,66,0.00,,---,0.00,VWS V13.01,2013-07-29 22:15:00,
2013-07-29 18:20:00,88.8,76.0,29.74,SSW,202,0.0,0.0,66,0.00,,---,0.00,VWS V13.01,2013-07-29 22:20:00,
2013-07-29 18:25:00,88.8,76.0,29.75,SW,225,0.0,0.0,66,0.00,,---,0.00,VWS V13.01,2013-07-29 22:25:00,
2013-07-29 18:31:00,88.8,76.0,29.76,SSW,202,0.0,0.0,66,0.00,,---,0.00,VWS V13.01,2013-07-29 22:31:00,
2013-07-29 18:36:00,88.7,75.9,29.76,SSW,202,0.0,0.0,66,0.00,,---,0.00,VWS V13.01,2013-07-29 22:36:00,
2013-07-29 18:42:00,88.5,75.7,29.76,SSW,202,0.0,0.0,66,0.00,,---,0.00,VWS V13.01,2013-07-29 22:42:00,
2013-07-29 18:47:00,88.5,75.7,29.75,SSW,202,0.0,0.0,66,0.00,,---,0.00,VWS V13.01,2013-07-29 22:47:00,
2013-07-29 18:53:00,88.5,75.7,29.75,SSW,202,0.0,0.0,66,0.00,,---,0.00,VWS V13.01,2013-07-29 22:53:00,
2013-07-29 18:58:00,88.3,75.5,29.76,SSW,202,0.0,0.0,66,0.00,,---,0.00,VWS V13.01,2013-07-29 22:58:00,
2013-07-29 19:03:00,88.1,75.3,29.75,SSW,202,0.0,0.0,66,0.00,,---,0.00,VWS V13.01,2013-07-29 23:03:00,
2013-07-29 19:09:00,87.9,75.1,29.76,SSW,202,0.0,0.0,66,0.00,,---,0.00,VWS V13.01,2013-07-29 23:09:00,
2013-07-29 19:15:00,87.9,75.6,29.76,SSW,202,0.0,0.0,67,0.00,,---,0.00,VWS V13.01,2013-07-29 23:15:00,
2013-07-29 19:21:00,87.6,75.3,29.76,SSW,202,0.0,0.0,67,0.00,,---,0.00,VWS V13.01,2013-07-29 23:21:00,
2013-07-29 19:26:00,87.6,75.3,29.76,SSW,202,0.0,0.0,67,0.00,,---,0.00,VWS V13.01,2013-07-29 23:26:00,
2013-07-29 19:31:00,87.4,75.1,29.76,SSW,202,0.0,0.0,67,0.00,,---,0.00,VWS V13.01,2013-07-29 23:31:00,
2013-07-29 19:36:00,87.0,74.7,29.76,SSW,202,0.0,0.0,67,0.00,,---,0.00,VWS V13.01,2013-07-29 23:36:00,
2013-07-29 19:41:00,87.0,74.7,29.76,SSW,202,0.0,0.0,67,0.00,,---,0.00,VWS V13.01,2013-07-29 23:41:00,
2013-07-29 19:46:00,86.9,74.6,29.76,SSW,202,0.0,0.0,67,0.00,,---,0.00,VWS V13.01,2013-07-29 23:46:00,
2013-07-29 19:52:00,86.7,74.9,29.76,SSW,202,0.0,0.0,68,0.00,,---,0.00,VWS V13.01,2013-07-29 23:52:00,
2013-07-29 19:57:00,86.5,74.7,29.76,SSW,202,0.0,0.0,68,0.00,,---,0.00,VWS V13.01,2013-07-29 23:57:00,
2013-07-29 20:03:00,86.3,74.5,29.76,SSW,202,0.0,0.0,68,0.00,,---,0.00,VWS V13.01,2013-07-30 00:03:00,
2013-07-29 20:08:00,86.1,74.3,29.76,SSW,202,0.0,0.0,68,0.00,,---,0.00,VWS V13.01,2013-07-30 00:08:00,
2013-07-29 20:13:00,86.0,74.2,29.76,SSW,202,0.0,0.0,68,0.00,,---,0.00,VWS V13.01,2013-07-30 00:13:00,
2013-07-29 20:18:00,85.8,74.5,29.76,SSW,202,0.0,0.0,69,0.00,,---,0.00,VWS V13.01,2013-07-30 00:18:00,
2013-07-29 20:24:00,85.6,74.3,29.76,SSW,202,0.0,0.0,69,0.00,,---,0.00,VWS V13.01,2013-07-30 00:24:00,
2013-07-29 20:29:00,85.6,74.3,29.76,SSW,202,0.0,0.0,69,0.00,,---,0.00,VWS V13.01,2013-07-30 00:29:00,
2013-07-29 20:34:00,85.2,73.9,29.76,SSW,202,0.0,0.0,69,0.00,,---,0.00,VWS V13.01,2013-07-30 00:34:00,
2013-07-29 20:39:00,85.1,74.2,29.77,SSW,202,0.0,0.0,70,0.00,,---,0.00,VWS V13.01,2013-07-30 00:39:00,
2013-07-29 20:44:00,84.9,74.0,29.77,SSW,202,0.0,0.0,70,0.00,,---,0.00,VWS V13.01,2013-07-30 00:44:00,
2013-07-29 20:49:00,84.7,73.8,29.77,SSW,202,0.0,0.0,70,0.00,,---,0.00,VWS V13.01,2013-07-30 00:49:00,
2013-07-29 20:54:00,84.5,74.1,29.77,SSW,202,0.0,0.0,71,0.00,,---,0.00,VWS V13.01,2013-07-30 00:54:00,
2013-07-29 20:59:00,84.3,73.9,29.77,SSW,202,0.0,0.0,71,0.00,,---,0.00,VWS V13.01,2013-07-30 00:59:00,
2013-07-29 21:05:00,84.2,74.2,29.78,SSW,202,0.0,0.0,72,0.00,,---,0.00,VWS V13.01,2013-07-30 01:05:00,
2013-07-29 21:10:00,84.0,74.0,29.78,SSW,202,0.0,0.0,72,0.00,,---,0.00,VWS V13.01,2013-07-30 01:10:00,
2013-07-29 21:15:00,84.0,74.0,29.78,SSW,202,0.0,0.0,72,0.00,,---,0.00,VWS V13.01,2013-07-30 01:15:00,
2013-07-29 21:20:00,83.8,73.8,29.78,SSW,202,0.0,0.0,72,0.00,,---,0.00,VWS V13.01,2013-07-30 01:20:00,
2013-07-29 21:25:00,83.8,73.8,29.79,SSW,202,0.0,0.0,72,0.00,,---,0.00,VWS V13.01,2013-07-30 01:25:00,
2013-07-29 21:32:00,83.6,74.0,29.78,SSW,202,0.0,0.0,73,0.00,,---,0.00,VWS V13.01,2013-07-30 01:32:00,
2013-07-29 21:37:00,83.4,73.8,29.78,SSW,202,0.0,0.0,73,0.00,,---,0.00,VWS V13.01,2013-07-30 01:37:00,
2013-07-29 21:42:00,83.3,73.8,29.79,SSW,202,0.0,0.0,73,0.00,,---,0.00,VWS V13.01,2013-07-30 01:42:00,
2013-07-29 21:47:00,83.1,74.0,29.79,SSW,202,0.0,0.0,74,0.00,,---,0.00,VWS V13.01,2013-07-30 01:47:00,
2013-07-29 21:52:00,83.1,74.0,29.79,SSW,202,0.0,0.0,74,0.00,,---,0.00,VWS V13.01,2013-07-30 01:52:00,
2013-07-29 21:57:00,82.9,74.2,29.79,SSW,202,0.0,0.0,75,0.00,,---,0.00,VWS V13.01,2013-07-30 01:57:00,
2013-07-29 22:02:00,82.9,74.2,29.79,SSW,202,0.0,0.0,75,0.00,,---,0.00,VWS V13.01,2013-07-30 02:02:00,
2013-07-29 22:07:00,82.7,74.0,29.80,SSW,202,0.0,0.0,75,0.00,,---,0.00,VWS V13.01,2013-07-30 02:07:00,
2013-07-29 22:12:00,82.5,73.8,29.80,SSW,202,0.0,0.0,75,0.00,,---,0.00,VWS V13.01,2013-07-30 02:12:00,
2013-07-29 22:17:00,82.5,73.8,29.80,SSW,202,0.0,0.0,75,0.00,,---,0.00,VWS V13.01,2013-07-30 02:17:00,
2013-07-29 22:23:00,82.2,73.5,29.80,SSW,202,0.0,0.0,75,0.00,,---,0.00,VWS V13.01,2013-07-30 02:23:00,
2013-07-29 22:28:00,82.2,73.9,29.80,SSW,202,0.0,0.0,76,0.00,,---,0.00,VWS V13.01,2013-07-30 02:28:00,
2013-07-29 22:33:00,82.2,73.9,29.81,SSW,202,0.0,0.0,76,0.00,,---,0.00,VWS V13.01,2013-07-30 02:33:00,
2013-07-29 22:39:00,82.0,73.7,29.80,SSW,202,0.0,0.0,76,0.00,,---,0.00,VWS V13.01,2013-07-30 02:39:00,
2013-07-29 22:44:00,82.0,73.7,29.81,SSW,202,0.0,0.0,76,0.00,,---,0.00,VWS V13.01,2013-07-30 02:44:00,
2013-07-29 22:49:00,82.0,74.1,29.81,SSW,202,0.0,0.0,77,0.00,,---,0.00,VWS V13.01,2013-07-30 02:49:00,
2013-07-29 22:54:00,81.6,73.7,29.81,SSW,202,0.0,0.0,77,0.00,,---,0.00,VWS V13.01,2013-07-30 02:54:00,
2013-07-29 22:59:00,81.6,73.7,29.80,SSW,202,0.0,0.0,77,0.00,,---,0.00,VWS V13.01,2013-07-30 02:59:00,
2013-07-29 23:04:00,81.6,73.7,29.80,SSW,202,0.0,0.0,77,0.00,,---,0.00,VWS V13.01,2013-07-30 03:04:00,
2013-07-29 23:09:00,81.5,74.0,29.81,SSW,202,0.0,0.0,78,0.00,,---,0.00,VWS V13.01,2013-07-30 03:09:00,
2013-07-29 23:15:00,81.5,74.0,29.81,SSW,202,0.0,0.0,78,0.00,,---,0.00,VWS V13.01,2013-07-30 03:15:00,
2013-07-29 23:20:00,81.3,73.8,29.81,SSW,202,0.0,0.0,78,0.00,,---,0.00,VWS V13.01,2013-07-30 03:20:00,
2013-07-29 23:26:00,81.3,73.8,29.81,SSW,202,0.0,0.0,78,0.00,,---,0.00,VWS V13.01,2013-07-30 03:26:00,
2013-07-29 23:31:00,81.3,73.8,29.81,SSW,202,0.0,0.0,78,0.00,,---,0.00,VWS V13.01,2013-07-30 03:31:00,
2013-07-29 23:37:00,81.1,73.6,29.81,SSW,202,0.0,0.0,78,0.00,,---,0.00,VWS V13.01,2013-07-30 03:37:00,
2013-07-29 23:42:00,81.1,73.6,29.81,SSW,202,0.0,0.0,78,0.00,,---,0.00,VWS V13.01,2013-07-30 03:42:00,
2013-07-29 23:47:00,80.9,73.8,29.81,SSW,202,0.0,0.0,79,0.00,,---,0.00,VWS V13.01,2013-07-30 03:47:00,
2013-07-29 23:53:00,80.7,73.6,29.81,SSW,202,0.0,0.0,79,0.00,,---,0.00,VWS V13.01,2013-07-30 03:53:00,
2013-07-29 23:59:00,80.7,73.6,29.81,SSW,202,0.0,0.0,79,0.00,,---,0.00,VWS V13.01,2013-07-30 03:59:00,